Weather History for West Palm Beach, FL

Change the Weather History Date:

Friday, August 22, 2014

  Actual Average Record
Temperature  
Mean Temperature 86 °F 83 °F  
Max Temperature 92 °F 90 °F 94 °F (1950)
Min Temperature 79 °F 76 °F 67 °F (1921)
Degree Days  
Heating Degree Days 0 0  
Month to date heating degree days 0 0  
Since 1 June heating degree days 0 0  
Since 1 July heating degree days 0 0  
Cooling Degree Days 21 18  
Month to date cooling degree days 422 396  
Year to date cooling degree days 2826 2544  
Since 1 June cooling degree days 1474 1435  
Growing Degree Days 35 (Base 50)    
Moisture  
Dew Point 75 °F    
Average Humidity 74    
Maximum Humidity 91    
Minimum Humidity 56    
Precipitation  
Precipitation 0.00 in 0.28 in 1.40 in (1966)
Month to date precipitation 9.37 5.47  
Year to date precipitation 42.80 38.24  
Snow  
Snow 0.00 in - - ()
Month to date snowfall 0.0  
Since 1 June snowfall 0.0  
Since 1 July snowfall 0.0  
Snow Depth 0.00 in    
Sea Level Pressure  
Sea Level Pressure 30.04 in    
Wind  
Wind Speed 6 mph (ESE)    
Max Wind Speed 15 mph    
Max Gust Speed 17 mph    
Visibility 10 miles    
Events Rain , Thunderstorm    
T = Trace of Precipitation, MM = Missing Value Source: NWS Daily Summary

Daily Weather History Graph

Daily Weather History Graph

Search for Another Location

Airport:

Trip Planner

Search our weather history database for the weather conditions in past years. The results will help you decide how hot, cold, wet, or windy it might be!

Date:

Astronomy

Aug. 22, 2014 Rise Set
Actual Time 6:55 AM EDT 7:50 PM EDT
Civil Twilight 6:31 AM EDT 8:14 PM EDT
Nautical Twilight 6:03 AM EDT 8:42 PM EDT
Astronomical Twilight 5:34 AM EDT 9:11 PM EDT
Moon 4:23 AM EDT (8/22) 5:52 PM EDT (8/22)
Length of Visible Light 13h 42m
Length of Day
12h 55m
Waning Crescent, 8% of the Moon is Illuminated
Aug 22
Waning Crescent
Aug 25
New
Sep 2
First Quarter
Sep 8
Full
Sep 15
Last Quarter

Hourly Weather History & Observations

Time (EDT) Temp. Heat Index Dew Point Humidity Pressure Visibility Wind Dir Wind Speed Gust Speed Precip Events Conditions
12:53 AM 84.0 °F 91.9 °F 75.0 °F 74% 30.10 in 10.0 mi SE 4.6 mph - N/A   Partly Cloudy
1:53 AM 84.0 °F 92.6 °F 75.9 °F 76% 30.08 in 10.0 mi SSE 4.6 mph - N/A   Scattered Clouds
2:53 AM 82.9 °F 90.8 °F 75.9 °F 79% 30.06 in 10.0 mi Calm Calm - N/A   Scattered Clouds
3:53 AM 79.0 °F - 75.9 °F 90% 30.04 in 10.0 mi West 3.5 mph - N/A   Scattered Clouds
4:53 AM 81.0 °F 87.3 °F 75.9 °F 85% 30.04 in 10.0 mi Calm Calm - N/A   Scattered Clouds
5:53 AM 80.1 °F 85.4 °F 75.9 °F 87% 30.04 in 10.0 mi Calm Calm - N/A   Scattered Clouds
6:53 AM 80.1 °F 85.4 °F 75.9 °F 87% 30.04 in 10.0 mi Calm Calm - N/A   Scattered Clouds
7:53 AM 82.0 °F 90.2 °F 77.0 °F 85% 30.06 in 10.0 mi North 3.5 mph - N/A   Scattered Clouds
8:53 AM 82.9 °F 91.8 °F 77.0 °F 82% 30.07 in 10.0 mi Calm Calm - N/A   Scattered Clouds
9:21 AM 82.9 °F 91.8 °F 77.0 °F 82% 30.07 in 10.0 mi NW 3.5 mph - N/A Thunderstorm Thunderstorm
9:53 AM 84.9 °F 95.3 °F 77.0 °F 77% 30.08 in 7.0 mi Variable 5.8 mph - N/A Thunderstorm Thunderstorm
10:53 AM 88.0 °F 98.5 °F 75.9 °F 67% 30.08 in 10.0 mi SE 3.5 mph - N/A Thunderstorm Thunderstorm
11:25 AM 90.0 °F 99.0 °F 73.9 °F 59% 30.08 in 10.0 mi NE 3.5 mph - N/A   Mostly Cloudy
11:53 AM 90.0 °F 99.0 °F 73.9 °F 59% 30.07 in 10.0 mi Variable 5.8 mph - N/A   Scattered Clouds
12:53 PM 91.0 °F 99.3 °F 73.0 °F 55% 30.06 in 10.0 mi East 8.1 mph - N/A   Scattered Clouds
1:44 PM 91.0 °F 100.4 °F 73.9 °F 57% 30.04 in 10.0 mi East 12.7 mph - N/A Thunderstorm Thunderstorm
1:53 PM 91.0 °F 100.4 °F 73.9 °F 57% 30.05 in 10.0 mi East 12.7 mph - N/A Thunderstorm Thunderstorm
2:53 PM 91.0 °F 100.4 °F 73.9 °F 57% 30.03 in 10.0 mi ESE 9.2 mph - N/A Thunderstorm Thunderstorm
3:53 PM 91.0 °F 100.4 °F 73.9 °F 57% 30.01 in 10.0 mi SE 6.9 mph - N/A Thunderstorm Thunderstorm
4:11 PM 90.0 °F 99.0 °F 73.9 °F 59% 30.00 in 10.0 mi East 8.1 mph - N/A   Scattered Clouds
4:53 PM 90.0 °F 97.9 °F 73.0 °F 57% 30.00 in 10.0 mi East 9.2 mph - N/A   Scattered Clouds
5:53 PM 90.0 °F 97.9 °F 73.0 °F 57% 29.99 in 10.0 mi East 9.2 mph - N/A   Scattered Clouds
6:53 PM 88.0 °F 95.6 °F 73.0 °F 61% 29.99 in 10.0 mi East 9.2 mph - N/A   Partly Cloudy
7:53 PM 86.0 °F 93.8 °F 73.9 °F 67% 29.99 in 10.0 mi East 10.4 mph - N/A   Partly Cloudy
8:53 PM 86.0 °F 95.1 °F 75.0 °F 70% 30.01 in 10.0 mi ESE 8.1 mph - N/A   Partly Cloudy
9:53 PM 84.9 °F 93.3 °F 75.0 °F 72% 30.01 in 10.0 mi ESE 9.2 mph - N/A   Scattered Clouds
10:53 PM 84.0 °F 91.9 °F 75.0 °F 74% 30.01 in 10.0 mi SE 5.8 mph - N/A   Partly Cloudy
11:53 PM 84.0 °F 91.9 °F 75.0 °F 74% 30.01 in 10.0 mi SE 6.9 mph - N/A   Partly Cloudy